Weather History for KBJC - November, 2013

Change the Weather History Date:

Saturday, November 2, 2013

  Actual Average Record
Temperature  
Mean Temperature 47 °F -  
Max Temperature 62 °F 52 °F 75 °F (2005)
Min Temperature 32 °F 33 °F 0 °F (1991)
Degree Days  
Heating Degree Days 18    
Moisture  
Dew Point 21 °F    
Average Humidity 48    
Maximum Humidity 65    
Minimum Humidity 16    
Precipitation  
Precipitation 0.00 in - - ()
Sea Level Pressure  
Sea Level Pressure 30.09 in    
Wind  
Wind Speed 7 mph (NW)    
Max Wind Speed 13 mph    
Max Gust Speed -    
Visibility 10 miles    
Events      
Averages and records for this station are not official NWS values.
T = Trace of Precipitation, MM = Missing Value Source: NWS Daily Summary

Daily Weather History Graph

Daily Weather History Graph

Search for Another Location

Airport or City:

Trip Planner

Search our weather history database for the weather conditions in past years. The results will help you decide how hot, cold, wet, or windy it might be!

Date:

Astronomy

Nov. 02, 2013 Rise Set
Actual Time 7:30 AM MDT 5:56 PM MDT
Civil Twilight 7:02 AM MDT 6:24 PM MDT
Nautical Twilight 6:30 AM MDT 6:56 PM MDT
Astronomical Twilight 5:59 AM MDT 7:28 PM MDT
Moon 6:30 AM MDT (11/2) 5:29 PM MDT (11/2)
Length of Visible Light 11h 22m
Length of Day
10h 25m
Waning Crescent, 1% of the Moon is Illuminated
Nov 2
Waning Crescent
Nov 3
New
Nov 9
First Quarter
Nov 17
Full
Nov 25
Last Quarter

Hourly Weather History & Observations

Time (MDT) Temp. Windchill Dew Point Humidity Pressure Visibility Wind Dir Wind Speed Gust Speed Precip Events Conditions
12:15 AM 35.6 °F 30.7 °F 23.0 °F 60% 30.21 in 10.0 mi NW 5.8 mph - N/A   Clear
12:35 AM 35.6 °F 27.1 °F 24.8 °F 65% 30.21 in 10.0 mi NNW 12.7 mph - N/A   Clear
12:55 AM 35.6 °F 28.0 °F 23.0 °F 60% 30.21 in 10.0 mi NNW 10.4 mph - N/A   Clear
1:15 AM 35.6 °F 27.5 °F 23.0 °F 60% 30.21 in 10.0 mi NNW 11.5 mph - N/A   Clear
1:35 AM 35.6 °F 27.5 °F 23.0 °F 60% 30.21 in 10.0 mi NNW 11.5 mph - N/A   Clear
1:54 AM 35.6 °F 28.0 °F 23.0 °F 60% 30.21 in 10.0 mi NNW 10.4 mph - N/A   Clear
2:15 AM 33.8 °F 25.8 °F 23.0 °F 65% 30.20 in 10.0 mi NNW 10.4 mph - N/A   Clear
2:35 AM 35.6 °F 27.5 °F 23.0 °F 60% 30.20 in 10.0 mi NNW 11.5 mph - N/A   Clear
2:55 AM 33.8 °F 27.0 °F 23.0 °F 65% 30.21 in 10.0 mi NNW 8.1 mph - N/A   Clear
3:15 AM 33.8 °F 26.4 °F 23.0 °F 65% 30.21 in 10.0 mi NNW 9.2 mph - N/A   Clear
3:34 AM 33.8 °F - 23.0 °F 65% 30.21 in 10.0 mi Calm Calm - N/A   Clear
3:55 AM 33.8 °F - 23.0 °F 65% 30.21 in 10.0 mi Calm Calm - N/A   Clear
4:15 AM 32.0 °F 28.7 °F 21.2 °F 64% 30.21 in 10.0 mi West 3.5 mph - N/A   Clear
4:35 AM 32.0 °F 24.2 °F 21.2 °F 64% 30.21 in 10.0 mi NW 9.2 mph - N/A   Clear
4:55 AM 33.8 °F 25.8 °F 21.2 °F 60% 30.20 in 10.0 mi NNW 10.4 mph - N/A   Clear
5:15 AM 35.6 °F 28.0 °F 21.2 °F 56% 30.19 in 10.0 mi NNW 10.4 mph - N/A   Clear
5:35 AM 33.8 °F - 21.2 °F 60% 30.20 in 10.0 mi Calm Calm - N/A   Clear
5:47 AM 35.6 °F 30.7 °F 19.4 °F 52% 30.20 in 30.0 mi NW 5.8 mph - N/A   Clear
5:55 AM 33.8 °F - 21.2 °F 60% 30.20 in 10.0 mi Calm Calm - N/A   Clear
6:47 AM 33.8 °F - 19.4 °F 56% 30.19 in 30.0 mi Calm Calm - N/A   Clear
7:47 AM 32.0 °F - 19.4 °F 60% 30.17 in 70.0 mi Calm Calm - N/A   Clear
8:56 AM 37.4 °F - 21.2 °F 52% 30.18 in 70.0 mi Calm Calm - N/A   Clear
9:47 AM 41.0 °F - 21.2 °F 45% 30.16 in 50.0 mi Calm Calm - N/A   Clear
10:50 AM 44.6 °F - 19.4 °F 37% 30.14 in 50.0 mi Calm Calm - N/A   Clear
11:47 AM 50.0 °F - 19.4 °F 30% 30.10 in 50.0 mi Calm Calm - N/A   Clear
1:54 PM 59.0 °F - 12.2 °F 16% 30.00 in 50.0 mi Variable 4.6 mph - N/A   Clear
2:47 PM 62.6 °F - 24.8 °F 24% 29.97 in 50.0 mi North 5.8 mph - N/A   Partly Cloudy
3:45 PM 62.6 °F - 24.8 °F 24% 29.95 in 30.0 mi North 5.8 mph - N/A   Partly Cloudy
4:45 PM 62.6 °F - 26.6 °F 26% 29.93 in 30.0 mi Calm Calm - N/A   Partly Cloudy
5:47 PM 59.0 °F - 24.8 °F 27% 29.91 in 30.0 mi Calm Calm - N/A   Partly Cloudy
6:50 PM 48.2 °F - 24.8 °F 40% 29.90 in 30.0 mi WSW 6.9 mph - N/A   Clear
7:50 PM 50.0 °F - 17.6 °F 28% 29.87 in 30.0 mi West 6.9 mph - N/A   Clear
8:50 PM 48.2 °F - 17.6 °F 30% 29.84 in 30.0 mi WSW 5.8 mph - N/A   Clear
9:45 PM 46.4 °F 45.2 °F 17.6 °F 32% 29.82 in 15.0 mi SW 3.5 mph - N/A   Clear
11:15 PM 50.0 °F - 17.6 °F 28% 29.78 in 10.0 mi WSW 8.1 mph - N/A   Clear
11:35 PM 50.0 °F - 17.6 °F 28% 29.78 in 10.0 mi WSW 4.6 mph - N/A   Clear
11:55 PM 50.0 °F - 17.6 °F 28% 29.77 in 10.0 mi Calm Calm - N/A   Clear